sat.trackr.live / text

‹ back to catalog

STARLINK-4686

NORAD 53715 · 2022-107R

PAYLOAD ACTIVE UNKNOWN

§ Identity

Operator
Country
US
Launch date
2022-09-05
Launch site
AFETR
Launch vehicle
Mass (kg)
RCS (m²)

Purposes: comms

External: N2YO · Heavens-Above · Gunter

§ Orbital elements

Epoch: 2026-05-25T00:55:17.308128Z

Period
95.44 min
Inclination
53.2167°
Eccentricity
0.0000970
Mean motion
15.08836325 rev/d
Perigee alt
539.1 km
Apogee alt
540.4 km
Semi-major
6,917.9 km
B*
3.8547e-5
RAAN
271.0944°
Arg perigee
135.2716°
Mean anomaly
224.8354°
Rev number
20,594

§ Raw data

STARLINK-46861 53715U 22107R   26145.03839477  .00000326  00000+0  38547-4 0  99932 53715  53.2167 271.0944 0000970 135.2716 224.8354 15.08836325205944

JSON: /api/v1/satellites/53715 · /tle

For live sub-satellite position, see the globe view (requires WebGL).

§ Visibility from observer

Set your observer location to see the next 7 days of passes ≥ 10°. The values pass through the URL so the page stays shareable.

No JS? Fill the form by hand. The geolocation button needs JavaScript.